Time,TemperatureF,DewpointF,PressureIn,WindDirection,WindDirectionDegrees,WindSpeedMPH,WindSpeedGustMPH,Humidity,HourlyPrecipIn,Conditions,Clouds,dailyrainin,SoftwareType,DateUTC
2013-08-06 09:15:00,63.1,59.5,30.00,South,182,0.0,1.0,88,0.00,,,0.00,Wunderground v.1.15,2013-08-06 13:15:00,
2013-08-06 09:20:00,64.0,60.1,30.00,South,182,0.0,1.0,87,0.00,,,0.00,Wunderground v.1.15,2013-08-06 13:20:00,
2013-08-06 09:25:00,64.5,59.6,30.01,South,171,0.0,1.0,84,0.00,,,0.00,Wunderground v.1.15,2013-08-06 13:25:00,
2013-08-06 09:30:00,65.1,59.8,30.01,South,170,1.0,1.0,83,0.00,,,0.00,Wunderground v.1.15,2013-08-06 13:30:00,
2013-08-06 09:40:00,65.7,59.4,30.01,South,170,0.0,0.0,80,0.00,,,0.00,Wunderground v.1.15,2013-08-06 13:40:00,
2013-08-06 09:45:00,65.8,59.1,30.01,South,170,0.0,0.0,79,0.00,,,0.00,Wunderground v.1.15,2013-08-06 13:45:00,
2013-08-06 09:50:00,66.3,59.9,30.01,South,170,0.0,0.0,80,0.00,,,0.00,Wunderground v.1.15,2013-08-06 13:50:00,
2013-08-06 09:55:00,66.6,59.9,30.01,South,170,0.0,0.0,79,0.00,,,0.00,Wunderground v.1.15,2013-08-06 13:55:00,
2013-08-06 10:00:00,66.8,59.4,30.02,South,170,0.0,0.0,77,0.00,,,0.00,Wunderground v.1.15,2013-08-06 14:00:00,
2013-08-06 10:05:00,67.2,59.7,30.01,South,170,0.0,4.0,77,0.00,,,0.00,Wunderground v.1.15,2013-08-06 14:05:00,
2013-08-06 10:15:00,67.2,59.0,30.02,South,170,0.0,4.0,75,0.00,,,0.00,Wunderground v.1.15,2013-08-06 14:15:00,
2013-08-06 10:20:00,67.7,60.2,30.02,South,170,0.0,4.0,77,0.00,,,0.00,Wunderground v.1.15,2013-08-06 14:20:00,
2013-08-06 10:25:00,68.1,59.1,30.02,South,169,1.0,4.0,73,0.00,,,0.00,Wunderground v.1.15,2013-08-06 14:25:00,
2013-08-06 10:30:00,68.2,59.2,30.02,South,169,1.0,4.0,73,0.00,,,0.00,Wunderground v.1.15,2013-08-06 14:30:00,
2013-08-06 10:35:00,68.3,59.3,30.01,South,169,0.0,4.0,73,0.00,,,0.00,Wunderground v.1.15,2013-08-06 14:35:00,
2013-08-06 10:40:00,68.2,59.2,30.02,South,169,0.0,4.0,73,0.00,,,0.00,Wunderground v.1.15,2013-08-06 14:40:00,
2013-08-06 10:45:00,68.1,59.1,30.02,South,169,0.0,4.0,73,0.00,,,0.00,Wunderground v.1.15,2013-08-06 14:45:00,
2013-08-06 10:55:00,68.1,59.1,30.02,South,169,0.0,4.0,73,0.00,,,0.00,Wunderground v.1.15,2013-08-06 14:55:00,
2013-08-06 11:00:00,68.4,58.6,30.02,South,169,0.0,4.0,71,0.00,,,0.00,Wunderground v.1.15,2013-08-06 15:00:00,
2013-08-06 11:05:00,68.6,58.8,30.03,South,169,0.0,4.0,71,0.00,,,0.00,Wunderground v.1.15,2013-08-06 15:05:00,
2013-08-06 11:10:00,69.1,58.9,30.02,South,169,0.0,4.0,70,0.00,,,0.00,Wunderground v.1.15,2013-08-06 15:10:00,
2013-08-06 11:15:00,69.3,59.1,30.02,South,169,0.0,4.0,70,0.00,,,0.00,Wunderground v.1.15,2013-08-06 15:15:00,
2013-08-06 11:20:00,69.3,59.1,30.02,South,171,0.0,4.0,70,0.00,,,0.00,Wunderground v.1.15,2013-08-06 15:20:00,
2013-08-06 11:25:00,69.5,59.3,30.02,South,171,0.0,4.0,70,0.00,,,0.00,Wunderground v.1.15,2013-08-06 15:25:00,
2013-08-06 11:35:00,69.8,59.2,30.01,South,171,0.0,4.0,69,0.00,,,0.00,Wunderground v.1.15,2013-08-06 15:35:00,
2013-08-06 11:40:00,70.2,59.6,30.01,South,171,1.0,1.0,69,0.00,,,0.00,Wunderground v.1.15,2013-08-06 15:40:00,
2013-08-06 11:45:00,70.7,59.2,30.01,SSE,168,1.0,4.0,67,0.00,,,0.00,Wunderground v.1.15,2013-08-06 15:45:00,
2013-08-06 11:50:00,70.8,59.3,30.01,SSW,210,1.0,1.0,67,0.00,,,0.00,Wunderground v.1.15,2013-08-06 15:50:00,
2013-08-06 11:55:00,71.2,58.8,30.01,SSW,203,1.0,4.0,65,0.00,,,0.00,Wunderground v.1.15,2013-08-06 15:55:00,
2013-08-06 12:00:00,71.7,58.4,30.01,SSW,196,0.0,4.0,63,0.00,,,0.00,Wunderground v.1.15,2013-08-06 16:00:00,
2013-08-06 12:05:00,72.2,57.5,30.00,SSW,211,1.0,4.0,60,0.00,,,0.00,Wunderground v.1.15,2013-08-06 16:05:00,
2013-08-06 12:10:00,72.4,57.7,30.00,SSE,161,1.0,1.0,60,0.00,,,0.00,Wunderground v.1.15,2013-08-06 16:10:00,
2013-08-06 12:20:00,73.2,57.5,30.00,SSE,161,1.0,1.0,58,0.00,,,0.00,Wunderground v.1.15,2013-08-06 16:20:00,
2013-08-06 12:25:00,73.6,57.4,30.01,SSE,161,1.0,4.0,57,0.00,,,0.00,Wunderground v.1.15,2013-08-06 16:25:00,
2013-08-06 12:30:00,73.9,57.2,30.00,SSE,161,1.0,1.0,56,0.00,,,0.00,Wunderground v.1.15,2013-08-06 16:30:00,
2013-08-06 12:35:00,74.1,57.4,30.00,SSE,155,1.0,4.0,56,0.00,,,0.00,Wunderground v.1.15,2013-08-06 16:35:00,
2013-08-06 12:40:00,73.9,57.2,30.00,SSE,148,1.0,1.0,56,0.00,,,0.00,Wunderground v.1.15,2013-08-06 16:40:00,
2013-08-06 12:45:00,73.3,55.1,30.00,SSE,148,2.0,2.0,53,0.00,,,0.00,Wunderground v.1.15,2013-08-06 16:45:00,
2013-08-06 12:55:00,74.4,59.1,30.00,SSE,148,0.0,4.0,59,0.00,,,0.00,Wunderground v.1.15,2013-08-06 16:55:00,
2013-08-06 13:00:00,74.9,57.6,30.00,SSE,155,1.0,1.0,55,0.00,,,0.00,Wunderground v.1.15,2013-08-06 17:00:00,
2013-08-06 13:05:00,73.9,56.2,30.00,SE,140,1.0,4.0,54,0.00,,,0.00,Wunderground v.1.15,2013-08-06 17:05:00,
2013-08-06 13:10:00,73.7,56.5,30.00,ESE,109,2.0,2.0,55,0.00,,,0.00,Wunderground v.1.15,2013-08-06 17:10:00,
2013-08-06 13:20:00,74.3,57.6,29.99,SSE,150,1.0,4.0,56,0.00,,,0.00,Wunderground v.1.15,2013-08-06 17:20:00,
2013-08-06 13:30:00,74.3,57.6,30.00,SE,138,2.0,2.0,56,0.00,,,0.00,Wunderground v.1.15,2013-08-06 17:30:00,
2013-08-06 13:35:00,74.5,56.8,30.00,SE,140,2.0,4.0,54,0.00,,,0.00,Wunderground v.1.15,2013-08-06 17:35:00,
2013-08-06 13:40:00,75.0,58.7,29.99,SE,140,1.0,1.0,57,0.00,,,0.00,Wunderground v.1.15,2013-08-06 17:40:00,
2013-08-06 13:45:00,75.3,58.5,29.99,ESE,109,0.0,4.0,56,0.00,,,0.00,Wunderground v.1.15,2013-08-06 17:45:00,
2013-08-06 13:50:00,75.6,59.3,30.00,SE,138,1.0,1.0,57,0.00,,,0.00,Wunderground v.1.15,2013-08-06 17:50:00,
2013-08-06 13:55:00,75.0,56.7,30.00,ESE,123,1.0,5.0,53,0.00,,,0.00,Wunderground v.1.15,2013-08-06 17:55:00,
2013-08-06 14:00:00,75.3,57.5,29.99,SE,128,1.0,4.0,54,0.00,,,0.00,Wunderground v.1.15,2013-08-06 18:00:00,
2013-08-06 14:10:00,75.8,60.0,30.00,SE,130,1.0,1.0,58,0.00,,,0.00,Wunderground v.1.15,2013-08-06 18:10:00,
2013-08-06 14:15:00,75.8,58.5,30.00,SE,130,1.0,4.0,55,0.00,,,0.00,Wunderground v.1.15,2013-08-06 18:15:00,
2013-08-06 14:20:00,75.7,57.9,30.00,SE,129,0.0,4.0,54,0.00,,,0.00,Wunderground v.1.15,2013-08-06 18:20:00,
2013-08-06 14:25:00,75.8,60.4,29.99,SE,135,0.0,4.0,59,0.00,,,0.00,Wunderground v.1.15,2013-08-06 18:25:00,
2013-08-06 14:30:00,75.8,57.4,29.99,SE,141,1.0,5.0,53,0.00,,,0.00,Wunderground v.1.15,2013-08-06 18:30:00,
2013-08-06 14:35:00,75.7,58.4,29.99,SE,144,3.0,5.0,55,0.00,,,0.00,Wunderground v.1.15,2013-08-06 18:35:00,
2013-08-06 14:40:00,76.8,58.4,29.99,SE,144,2.0,2.0,53,0.00,,,0.00,Wunderground v.1.15,2013-08-06 18:40:00,
2013-08-06 14:50:00,77.1,57.0,29.99,SSE,161,1.0,1.0,50,0.00,,,0.00,Wunderground v.1.15,2013-08-06 18:50:00,
2013-08-06 14:55:00,76.8,57.8,29.99,SSE,161,1.0,4.0,52,0.00,,,0.00,Wunderground v.1.15,2013-08-06 18:55:00,
2013-08-06 15:00:00,76.5,58.1,29.99,SSE,161,1.0,1.0,53,0.00,,,0.00,Wunderground v.1.15,2013-08-06 19:00:00,
2013-08-06 15:05:00,75.9,60.1,29.99,SSE,161,1.0,4.0,58,0.00,,,0.00,Wunderground v.1.15,2013-08-06 19:05:00,
2013-08-06 15:10:00,75.5,57.7,29.99,SSE,159,1.0,1.0,54,0.00,,,0.00,Wunderground v.1.15,2013-08-06 19:10:00,
2013-08-06 15:15:00,75.3,57.0,29.98,SSE,159,0.0,4.0,53,0.00,,,0.00,Wunderground v.1.15,2013-08-06 19:15:00,
2013-08-06 15:20:00,76.4,58.5,29.98,SSE,159,0.0,4.0,54,0.00,,,0.00,Wunderground v.1.15,2013-08-06 19:20:00,
2013-08-06 15:30:00,75.6,57.8,29.98,SSE,159,1.0,1.0,54,0.00,,,0.00,Wunderground v.1.15,2013-08-06 19:30:00,
2013-08-06 15:35:00,76.6,56.6,29.98,SSE,159,1.0,4.0,50,0.00,,,0.00,Wunderground v.1.15,2013-08-06 19:35:00,
2013-08-06 15:40:00,77.1,57.0,29.98,SSE,159,0.0,4.0,50,0.00,,,0.00,Wunderground v.1.15,2013-08-06 19:40:00,
2013-08-06 15:45:00,77.7,59.2,29.98,SSE,159,0.0,4.0,53,0.00,,,0.00,Wunderground v.1.15,2013-08-06 19:45:00,
2013-08-06 15:50:00,78.0,57.3,29.97,SSE,159,0.0,4.0,49,0.00,,,0.00,Wunderground v.1.15,2013-08-06 19:50:00,
2013-08-06 15:55:00,77.7,57.0,29.98,SSE,155,0.0,4.0,49,0.00,,,0.00,Wunderground v.1.15,2013-08-06 19:55:00,
2013-08-06 16:00:00,77.2,57.7,29.98,SSE,156,1.0,1.0,51,0.00,,,0.00,Wunderground v.1.15,2013-08-06 20:00:00,
2013-08-06 16:10:00,77.4,56.7,29.97,SSE,156,1.0,1.0,49,0.00,,,0.00,Wunderground v.1.15,2013-08-06 20:10:00,
2013-08-06 16:15:00,77.3,56.6,29.98,SSE,161,1.0,4.0,49,0.00,,,0.00,Wunderground v.1.15,2013-08-06 20:15:00,
2013-08-06 16:20:00,77.3,56.1,29.98,South,186,1.0,1.0,48,0.00,,,0.00,Wunderground v.1.15,2013-08-06 20:20:00,
2013-08-06 16:25:00,77.3,57.2,29.97,South,186,1.0,4.0,50,0.00,,,0.00,Wunderground v.1.15,2013-08-06 20:25:00,
2013-08-06 16:30:00,77.9,58.3,29.98,SSE,166,1.0,7.0,51,0.00,,,0.00,Wunderground v.1.15,2013-08-06 20:30:00,
2013-08-06 16:35:00,77.8,57.7,29.98,SSE,164,1.0,7.0,50,0.00,,,0.00,Wunderground v.1.15,2013-08-06 20:35:00,
2013-08-06 16:40:00,78.2,57.5,29.97,SSE,164,1.0,4.0,49,0.00,,,0.00,Wunderground v.1.15,2013-08-06 20:40:00,
2013-08-06 16:50:00,78.2,57.5,29.98,SSE,159,1.0,1.0,49,0.00,,,0.00,Wunderground v.1.15,2013-08-06 20:50:00,
2013-08-06 16:55:00,78.3,59.2,29.97,SSE,155,1.0,4.0,52,0.00,,,0.00,Wunderground v.1.15,2013-08-06 20:55:00,
2013-08-06 17:00:00,78.5,57.7,29.97,SSE,155,1.0,1.0,49,0.00,,,0.00,Wunderground v.1.15,2013-08-06 21:00:00,
2013-08-06 17:05:00,78.5,57.2,29.98,SSE,155,0.0,4.0,48,0.00,,,0.00,Wunderground v.1.15,2013-08-06 21:05:00,
2013-08-06 17:10:00,79.1,58.3,29.98,SSE,155,0.0,4.0,49,0.00,,,0.00,Wunderground v.1.15,2013-08-06 21:10:00,
2013-08-06 17:15:00,78.7,58.5,29.98,SSE,155,0.0,4.0,50,0.00,,,0.00,Wunderground v.1.15,2013-08-06 21:15:00,
2013-08-06 17:20:00,78.5,56.6,29.98,SSE,155,0.0,4.0,47,0.00,,,0.00,Wunderground v.1.15,2013-08-06 21:20:00,
2013-08-06 17:25:00,77.7,57.6,29.98,SSE,155,1.0,4.0,50,0.00,,,0.00,Wunderground v.1.15,2013-08-06 21:25:00,
2013-08-06 17:35:00,77.0,58.6,29.98,SSE,155,0.0,4.0,53,0.00,,,0.00,Wunderground v.1.15,2013-08-06 21:35:00,
2013-08-06 17:40:00,77.9,58.3,29.97,SSE,155,0.0,4.0,51,0.00,,,0.00,Wunderground v.1.15,2013-08-06 21:40:00,
2013-08-06 17:45:00,78.2,58.6,29.97,SSE,155,0.0,4.0,51,0.00,,,0.00,Wunderground v.1.15,2013-08-06 21:45:00,
2013-08-06 17:50:00,78.5,58.3,29.97,SSE,155,0.0,4.0,50,0.00,,,0.00,Wunderground v.1.15,2013-08-06 21:50:00,
2013-08-06 17:55:00,78.4,58.2,29.96,SSE,156,0.0,4.0,50,0.00,,,0.00,Wunderground v.1.15,2013-08-06 21:55:00,
2013-08-06 18:00:00,77.7,58.7,29.96,SSE,156,1.0,1.0,52,0.00,,,0.00,Wunderground v.1.15,2013-08-06 22:00:00,
2013-08-06 18:05:00,77.6,58.6,29.96,SSE,156,1.0,4.0,52,0.00,,,0.00,Wunderground v.1.15,2013-08-06 22:05:00,
2013-08-06 18:15:00,78.3,57.0,29.95,SSE,156,0.0,4.0,48,0.00,,,0.00,Wunderground v.1.15,2013-08-06 22:15:00,
2013-08-06 18:20:00,78.5,59.9,29.95,SSE,156,0.0,4.0,53,0.00,,,0.00,Wunderground v.1.15,2013-08-06 22:20:00,
2013-08-06 18:25:00,78.3,58.1,29.95,SSE,156,0.0,4.0,50,0.00,,,0.00,Wunderground v.1.15,2013-08-06 22:25:00,
2013-08-06 18:30:00,78.4,57.7,29.95,SSE,156,0.0,4.0,49,0.00,,,0.00,Wunderground v.1.15,2013-08-06 22:30:00,
2013-08-06 18:35:00,77.6,60.7,29.95,NE,42,1.0,4.0,56,0.00,,,0.00,Wunderground v.1.15,2013-08-06 22:35:00,
2013-08-06 18:40:00,76.8,60.9,29.95,NNE,27,2.0,2.0,58,0.00,,,0.00,Wunderground v.1.15,2013-08-06 22:40:00,
2013-08-06 18:45:00,76.5,61.1,29.95,NNE,28,1.0,4.0,59,0.00,,,0.00,Wunderground v.1.15,2013-08-06 22:45:00,
2013-08-06 18:55:00,76.3,61.9,29.95,NNE,23,1.0,4.0,61,0.00,,,0.00,Wunderground v.1.15,2013-08-06 22:55:00,
2013-08-06 19:00:00,76.2,61.8,29.95,NNE,22,1.0,1.0,61,0.00,,,0.00,Wunderground v.1.15,2013-08-06 23:00:00,
2013-08-06 19:05:00,76.0,62.0,29.95,NNE,22,0.0,4.0,62,0.00,,,0.00,Wunderground v.1.15,2013-08-06 23:05:00,
2013-08-06 19:10:00,75.5,61.6,29.95,NNE,22,0.0,4.0,62,0.00,,,0.00,Wunderground v.1.15,2013-08-06 23:10:00,
2013-08-06 19:15:00,75.2,62.2,29.95,NNE,22,0.0,4.0,64,0.00,,,0.00,Wunderground v.1.15,2013-08-06 23:15:00,
2013-08-06 19:20:00,75.0,62.4,29.95,NNE,22,0.0,4.0,65,0.00,,,0.00,Wunderground v.1.15,2013-08-06 23:20:00,
2013-08-06 19:25:00,74.7,61.7,29.95,NNE,22,0.0,4.0,64,0.00,,,0.00,Wunderground v.1.15,2013-08-06 23:25:00,
2013-08-06 19:35:00,74.2,62.1,29.95,NNE,22,0.0,4.0,66,0.00,,,0.00,Wunderground v.1.15,2013-08-06 23:35:00,
2013-08-06 19:40:00,73.9,62.2,29.95,NNE,22,0.0,4.0,67,0.00,,,0.00,Wunderground v.1.15,2013-08-06 23:40:00,
2013-08-06 19:45:00,73.7,62.5,29.95,NNE,22,0.0,4.0,68,0.00,,,0.00,Wunderground v.1.15,2013-08-06 23:45:00,
2013-08-06 19:50:00,73.2,62.8,29.95,NNE,22,0.0,4.0,70,0.00,,,0.00,Wunderground v.1.15,2013-08-06 23:50:00,
2013-08-06 19:55:00,72.5,62.6,29.95,NNE,22,0.0,4.0,71,0.00,,,0.00,Wunderground v.1.15,2013-08-06 23:55:00,
2013-08-06 20:00:00,72.0,62.5,29.95,NNE,22,0.0,4.0,72,0.00,,,0.00,Wunderground v.1.15,2013-08-07 00:00:00,
2013-08-06 20:05:00,71.4,62.3,29.95,NNE,22,0.0,4.0,73,0.00,,,0.00,Wunderground v.1.15,2013-08-07 00:05:00,
2013-08-06 20:15:00,70.5,62.2,29.96,NNE,22,0.0,4.0,75,0.00,,,0.00,Wunderground v.1.15,2013-08-07 00:15:00,
2013-08-06 20:25:00,69.6,61.7,29.95,NNE,22,0.0,4.0,76,0.00,,,0.00,Wunderground v.1.15,2013-08-07 00:25:00,
2013-08-06 20:30:00,69.2,61.7,29.95,NNE,22,0.0,4.0,77,0.00,,,0.00,Wunderground v.1.15,2013-08-07 00:30:00,
2013-08-06 20:35:00,68.7,61.6,29.95,NNE,22,0.0,4.0,78,0.00,,,0.00,Wunderground v.1.15,2013-08-07 00:35:00,
2013-08-06 20:40:00,68.3,61.2,29.95,NNE,22,0.0,4.0,78,0.00,,,0.00,Wunderground v.1.15,2013-08-07 00:40:00,
2013-08-06 20:45:00,67.9,61.1,29.95,NNE,22,0.0,4.0,79,0.00,,,0.00,Wunderground v.1.15,2013-08-07 00:45:00,
2013-08-06 20:50:00,67.6,60.9,29.95,NNE,22,0.0,4.0,79,0.00,,,0.00,Wunderground v.1.15,2013-08-07 00:50:00,
2013-08-06 21:00:00,66.9,60.9,29.95,NNE,22,0.0,4.0,81,0.00,,,0.00,Wunderground v.1.15,2013-08-07 01:00:00,
2013-08-06 21:05:00,66.6,60.6,29.95,NNE,22,0.0,4.0,81,0.00,,,0.00,Wunderground v.1.15,2013-08-07 01:05:00,
2013-08-06 21:10:00,66.3,60.6,29.95,NNE,22,0.0,4.0,82,0.00,,,0.00,Wunderground v.1.15,2013-08-07 01:10:00,
2013-08-06 21:15:00,66.0,60.3,29.95,NNE,22,0.0,4.0,82,0.00,,,0.00,Wunderground v.1.15,2013-08-07 01:15:00,
2013-08-06 21:20:00,65.7,60.4,29.96,NNE,22,0.0,4.0,83,0.00,,,0.00,Wunderground v.1.15,2013-08-07 01:20:00,
2013-08-06 21:25:00,65.4,60.1,29.96,NNE,22,0.0,4.0,83,0.00,,,0.00,Wunderground v.1.15,2013-08-07 01:25:00,
2013-08-06 21:30:00,65.2,60.2,29.96,NNE,22,0.0,4.0,84,0.00,,,0.00,Wunderground v.1.15,2013-08-07 01:30:00,
2013-08-06 21:40:00,64.7,59.8,29.96,NNE,22,0.0,4.0,84,0.00,,,0.00,Wunderground v.1.15,2013-08-07 01:40:00,
2013-08-06 21:45:00,64.5,59.9,29.96,NNE,22,0.0,4.0,85,0.00,,,0.00,Wunderground v.1.15,2013-08-07 01:45:00,
2013-08-06 21:50:00,64.3,59.7,29.96,NNE,22,0.0,4.0,85,0.00,,,0.00,Wunderground v.1.15,2013-08-07 01:50:00,
2013-08-06 21:55:00,64.1,59.5,29.96,NNE,22,0.0,4.0,85,0.00,,,0.00,Wunderground v.1.15,2013-08-07 01:55:00,
2013-08-06 22:00:00,64.0,59.4,29.96,NNE,22,0.0,4.0,85,0.00,,,0.00,Wunderground v.1.15,2013-08-07 02:00:00,
2013-08-06 22:05:00,63.8,59.2,29.96,NNE,22,0.0,4.0,85,0.00,,,0.00,Wunderground v.1.15,2013-08-07 02:05:00,
2013-08-06 22:10:00,63.6,59.3,29.96,NNE,22,0.0,4.0,86,0.00,,,0.00,Wunderground v.1.15,2013-08-07 02:10:00,
2013-08-06 22:20:00,63.4,59.1,29.96,NNE,22,0.0,4.0,86,0.00,,,0.00,Wunderground v.1.15,2013-08-07 02:20:00,
2013-08-06 22:25:00,63.3,59.0,29.96,NNE,22,0.0,4.0,86,0.00,,,0.00,Wunderground v.1.15,2013-08-07 02:25:00,
2013-08-06 22:30:00,63.2,59.3,29.96,NNE,22,0.0,4.0,87,0.00,,,0.00,Wunderground v.1.15,2013-08-07 02:30:00,
2013-08-06 22:35:00,63.1,59.2,29.96,NNE,22,0.0,4.0,87,0.00,,,0.00,Wunderground v.1.15,2013-08-07 02:35:00,
2013-08-06 22:40:00,63.1,59.2,29.96,NNE,22,0.0,4.0,87,0.00,,,0.00,Wunderground v.1.15,2013-08-07 02:40:00,
2013-08-06 22:45:00,63.0,59.1,29.96,NNE,22,0.0,4.0,87,0.00,,,0.00,Wunderground v.1.15,2013-08-07 02:45:00,
2013-08-06 22:50:00,63.0,59.1,29.95,NNE,22,0.0,4.0,87,0.00,,,0.00,Wunderground v.1.15,2013-08-07 02:50:00,
2013-08-06 23:00:00,62.9,59.0,29.95,NNE,22,0.0,4.0,87,0.00,,,0.00,Wunderground v.1.15,2013-08-07 03:00:00,